Location: Baia Mare
(47.6567°N, 23.5850°E)
Time: 19:57:28
(UTC+03:00)

Envisat - Pass Details

Date: 24 January 2022
Orbit: 764 x 765 km, 98.2° (Epoch: 19 May)

Event Time Altitude Azimuth Distance (km) Brightness Sun altitude
Rises 04:11:24 0° 26° (NNE) 3,241 6.7 -38.5°
Reaches altitude 10° 04:14:20 10° 44° (NE) 2,309 6.0 -38.0°
Maximum altitude 04:18:00 20° 90° (E) 1,728 5.4 -37.4°
Drops below altitude 10° 04:21:39 10° 137° (SE) 2,297 5.7 -36.8°
Sets 04:24:33 0° 154° (SSE) 3,218 6.4 -36.3°
